Regional Weather Roundup
Issued by NWS

Home | Current Version | Previous Version | Graphics & Text | Print | Product List | Glossary On
Versions: 1 2 3 4 5 6 7 8 9 10 11 12 13 14 15 16 17 18 19 20 21 22 23 24 25 26 27 28 29 30 31 32 33 34 35 36 37 38 39 40 41 42 43 44 45 46 47 48 49 50
000
ASUS43 KMPX 221310
RWRMN
WEATHER ROUNDUP FOR MINNESOTA
NATIONAL WEATHER SERVICE TWIN CITIES/CHANHASSEN MN
800 AM CDT MON SEP 22 2014


NOTE: "FAIR" INDICATES FEW OR NO CLOUDS BELOW 12,000 FEET WITH NO
SIGNIFICANT WEATHER AND/OR OBSTRUCTIONS TO VISIBILITY. N/A MEANS
CURRENT SKY AND/OR WEATHER CONDITIONS ARE NOT AVAILABLE.

MNZ060>063-068>070-221400-
   Twin Cities Metro

CITY           SKY/WX    TMP DP  RH WIND       PRES   REMARKS
TWIN CITIES    CLEAR     50  48  93 SW3       30.27R
ST PAUL        FOG       47  47 100 CALM      30.28R VSB 1/4
CRYSTAL        CLEAR     48  45  89 CALM      30.25R
LAKEVILLE      CLEAR     46  46 100 CALM      30.27R
EDEN PRAIRIE   CLEAR     47  47 100 SW5       30.26R FOG
SOUTH ST PAUL  CLEAR     50  48  93 CALM      30.27R
LAKE ELMO      FAIR      45  45 100 CALM      30.27R
$$
MNZ001>005-007-008-013>017-022>024-027-028-221400-
   Northwest Minnesota

CITY           SKY/WX    TMP DP  RH WIND       PRES   REMARKS
BEMIDJI        CLEAR     47  46  93 SW7       30.18S
HALLOCK        CLEAR     46  45  93 S7        30.12S
ROSEAU         CLEAR     46  41  81 S7        30.13S
WARROAD        CLEAR     48  45  87 SW9       30.12F
THIEF RVR FALL CLEAR     46  45  93 S8        30.16S
CROOKSTON      CLEAR     46  45  93 S7        30.17S
FOSSTON        CLEAR     45  45 100 S9        30.19S
DETROIT LAKES  CLEAR     50  46  87 SW3       30.22S
MOORHEAD       CLEAR     46  46 100 S7        30.21S
PARK RAPIDS    CLEAR     46  45  96 SW6       30.21S
MAHNOMEN       FAIR      47  45  95 S9        30.19S
$$
MNZ006-009>011-018-025>026-221400-
   North Central Minnesota

CITY           SKY/WX    TMP DP  RH WIND       PRES   REMARKS
BAUDETTE       CLEAR     49  46  90 SW7       30.13S
FLAG ISLAND    CLEAR     52  46  82 SW15      30.07F
INTL FALLS     FOG       44  44 100 VRB3      30.14S VSB 1/2
WASKISH        CLEAR     45  45 100 CALM      30.16S
BIG FORK       FOG       41  39  93 CALM      30.18S VSB 1/2
LONGVILLE      CLEAR     48  48 100 SW6       30.20S
GRAND RAPIDS   CLEAR     50  45  81 SW3       30.19S
CRANE LAKE     CLEAR     37  37 100 CALM      30.17S
ORR            CLEAR     43  39  87 CALM      30.14F
COOK           CLEAR     43  43 100 SW3       30.17F
WALKER         FAIR      49  47  93 W6        30.19S
$$
MNZ012-019>021-037-221400-
   Northeast Minnesota

CITY           SKY/WX    TMP DP  RH WIND       PRES   REMARKS
DULUTH         SUNNY     50  46  86 W8        30.19R
ELY            CLOUDY    46  45  93 SW5       30.16S FOG
HIBBING        FOG       38  36  92 CALM      30.19S VSB 3/4
EVELETH        FOG       41  41 100 W3        30.19S VSB 1/4
DULUTH HARBOR  SUNNY     48  46  93 SW7       30.20S
TWO HARBORS    SUNNY     46  43  87 W3        30.16S
SILVER BAY     SUNNY     46  46 100 NW3       30.15S
GRAND MARAIS     N/A     51  48  89 W3        30.13F
G MARAIS ARPRT SUNNY     45  43  93 CALM      30.14S
$$
MNZ029>031-032-039>041-046>048-054>057-064-221400-
   West Central Minnesota

CITY           SKY/WX    TMP DP  RH WIND       PRES   REMARKS
FERGUS FALLS   CLEAR     46  45  93 SE5       30.24S
WHEATON        CLEAR     45  43  93 S5        30.25S
MORRIS         CLEAR     45  45 100 S5        30.24S
ALEXANDRIA     CLEAR     50  47  89 SW7       30.25S
ELBOW LAKE     FAIR      45  44  97 SE5       30.23F
WADENA         CLEAR     39  39 100 CALM      30.23S
GLENWOOD       FAIR      46  45  93 SW6       30.26S
APPLETON       CLEAR     46  45  93 CALM      30.25S
BENSON         CLEAR     43  41  93 CALM      30.26S
ORTONVILLE     CLEAR     46  43  87 CALM      30.24S
MADISON        CLEAR     46  45  93 SW3       30.25S
WILLMAR        FAIR      45  43  93 CALM      30.28S
$$
MNZ033>034-036-042>043-049>051-058-059-221400-
   Central Minnesota

CITY           SKY/WX    TMP DP  RH WIND       PRES   REMARKS
ST CLOUD       CLEAR     47  44  90 CALM      30.25S FOG
SAUK CENTRE    FAIR      44  44 100 CALM      30.25F
PAYNESVILLE    CLEAR     41  41 100 SW3       30.27R
AITKIN         MOCLDY    46  41  81 CALM      30.21S HAZE
PINE RIVER     CLEAR     39  39 100 CALM      30.25S
BRAINERD       CLEAR     43  43 100 S6        30.24R
STAPLES        CLEAR     39  39 100 CALM      30.23S
LONG PRAIRIE   FAIR      45  45 100 S3        30.25F
LITTLE FALLS     N/A     41  39  93 CALM      30.24F FOG
LITCHFIELD     CLEAR     50  50 100 CALM      30.27S
BUFFALO        CLEAR     48  46  93 S3        30.27S
MAPLE LAKE     CLEAR     48  48  99 SW6       30.27S
$$
MNZ037-044-045-052-053-221400-
   East Central Minnesota

CITY           SKY/WX    TMP DP  RH WIND       PRES   REMARKS
PRINCETON      CLEAR     39  39 100 CALM      30.26R
MORA           CLEAR     43  41  93 CALM      30.25S FOG
CAMBRIDGE      CLEAR     46  39  76 CALM      30.24R
RUSH CITY      PTCLDY    43  42  97 CALM      30.25R FOG
MOOSE LAKE     CLEAR     41  41 100 SW5       30.19F FOG
HINCKLEY       FAIR      43  43 100 CALM      30.23S
CLOQUET        CLEAR     46  45  93 W5        30.20S
MCGREGOR       CLEAR     45  43  93 SW3       30.22S
$$
MNZ071>073-080-081-089-090-097-098-221400-
   Southwest Minnesota

CITY           SKY/WX    TMP DP  RH WIND       PRES   REMARKS
MONTEVIDEO     CLEAR     48  45  87 W3        30.27S
GRANITE FALLS  CLEAR     43  42  99 S5        30.28S
CANBY          CLEAR     53  47  80 SW9       30.27S
MARSHALL       CLEAR     52  45  76 SW9       30.26S
REDWOOD FALLS  CLEAR     45  43  93 CALM      30.28R
OLIVIA         CLEAR     43  41  93 CALM      30.26S
PIPESTONE      CLEAR     46  43  87 S5        30.28S
WINDOM           N/A     45  45 100 S3        30.30R
WORTHINGTON    CLEAR     48  46  93 SW7       30.30S
JACKSON        CLEAR     46  45  93 SW3       30.31R
TRACY          CLEAR     50  47  90 SW8       30.28S
SLAYTON        CLEAR     49  47  93 CALM      30.30R
$$
MNZ065>067-074>077-082>085-091>093-221400-
   South Central Minnesota

CITY           SKY/WX    TMP DP  RH WIND       PRES   REMARKS
MANKATO        CLEAR     45  39  81 W5        30.29R
NEW ULM        CLEAR     43  43 100 CALM      30.29R
ST JAMES       CLEAR     46  45  93 SW6       30.30S
FAIRMONT       CLEAR     46  43  87 CALM      30.29S
GLENCOE        CLEAR     47  44  91 CALM      30.27S
FARIBAULT      CLEAR     50  45  81 SW5       30.28R
OWATONNA       CLEAR     45  43  93 CALM      30.29R FOG
WASECA         FOG       41  37  87 CALM      30.31R VSB 1/4
ALBERT LEA     CLEAR     48  48 100 CALM      30.29S
$$
MNZ078>079-086>088-094>096-221400-
   Southeast Minnesota

CITY           SKY/WX    TMP DP  RH WIND       PRES   REMARKS
ROCHESTER      SUNNY     46  45  96 SW5       30.28R
RED WING       FOG       46  45  93 CALM      30.26R VSB<1/4
STANTON        CLEAR     46  44  94 CALM      30.26S FOG
DODGE CENTER   FOG       45  45 100 W6        30.28R VSB 1/4
WINONA         MOSUNNY   46  46 100 CALM      30.27S
AUSTIN         PTSUNNY   45  43  93 CALM      30.29R FOG
PRESTON        SUNNY     46  46 100 S3        30.28S
$$
ABBREVIATIONS USED IN REMARKS
   TC - TEMPERATURES IN CELSIUS
  WCI - WIND CHILL INDEX
   HX - HEAT INDEX
  VSB - VISIBILITY
$$


USA.gov is the U.S. government's official web portal to all federal, state and local government web resources and services.